Weather History for Eagle Creek, IN

Change the Weather History Date:

Friday, January 10, 2014

  Actual Average Record
Temperature  
Mean Temperature 37 °F 28 °F  
Max Temperature 42 °F 35 °F 53 °F (2008)
Min Temperature 31 °F 21 °F -5 °F (1999)
Degree Days  
Heating Degree Days 28 37  
Month to date heating degree days 475 370  
Since 1 July heating degree days 2729 2426  
Cooling Degree Days 0 0  
Month to date cooling degree days 0 0  
Year to date cooling degree days 0 0  
Moisture  
Dew Point 35 °F    
Average Humidity 93    
Maximum Humidity 100    
Minimum Humidity 85    
Precipitation  
Precipitation 0.28 in 0.09 in 1.07 in (1993)
Month to date precipitation 1.52 1.02  
Year to date precipitation 1.52 1.02  
Sea Level Pressure  
Sea Level Pressure 30.00 in    
Wind  
Wind Speed 7 mph (SSE)    
Max Wind Speed 12 mph    
Max Gust Speed 17 mph    
Visibility 2 miles    
Events Fog , Rain    
T = Trace of Precipitation, MM = Missing Value Source: NWS Daily Summary

Daily Weather History Graph

Daily Weather History Graph

Search for Another Location

Airport:

Trip Planner

Search our weather history database for the weather conditions in past years. The results will help you decide how hot, cold, wet, or windy it might be!

Date:

Astronomy

Jan. 10, 2014 Rise Set
Actual Time 8:06 AM EST 5:39 PM EST
Civil Twilight 7:36 AM EST 6:09 PM EST
Nautical Twilight 7:02 AM EST 6:43 PM EST
Astronomical Twilight 6:30 AM EST 7:15 PM EST
Moon 1:43 PM EST (1/10) 3:13 AM EST (1/10)
Length of Visible Light 10h 33m
Length of Day
9h 33m
Waxing Gibbous, 75% of the Moon is Illuminated
Jan 10
Waxing Gibbous
Jan 15
Full
Jan 24
Last Quarter
Jan 30
New
Feb 6
First Quarter

Hourly Weather History & Observations

Time (EST) Temp. Windchill Dew Point Humidity Pressure Visibility Wind Dir Wind Speed Gust Speed Precip Events Conditions
12:05 AM 30.9 °F 24.3 °F 30.0 °F 96% 30.22 in 2.5 mi SSE 6.9 mph - N/A   Overcast
12:24 AM 30.9 °F 25.2 °F 30.0 °F 96% 30.21 in 2.0 mi South 5.8 mph - N/A   Overcast
12:53 AM 32.0 °F 26.4 °F 30.0 °F 92% 30.23 in 2.5 mi South 5.8 mph - N/A   Overcast
1:03 AM 32.0 °F 24.8 °F 30.0 °F 92% 30.20 in 4.0 mi South 8.1 mph - N/A   Overcast
1:53 AM 32.0 °F 26.4 °F 30.9 °F 96% 30.21 in 2.5 mi SSE 5.8 mph - N/A   Overcast
2:53 AM 32.0 °F 26.4 °F 30.9 °F 96% 30.22 in 1.8 mi SSE 5.8 mph - N/A   Overcast
3:12 AM 32.0 °F 26.4 °F 30.9 °F 96% 30.19 in 2.0 mi SSE 5.8 mph - N/A   Overcast
3:44 AM 32.0 °F 25.6 °F 30.9 °F 96% 30.18 in 1.8 mi SSE 6.9 mph - N/A   Overcast
3:53 AM 32.0 °F 24.8 °F 30.9 °F 96% 30.20 in 1.8 mi SSE 8.1 mph - N/A   Overcast
4:20 AM 32.0 °F 26.4 °F 30.9 °F 96% 30.17 in 2.5 mi SSE 5.8 mph - N/A   Overcast
4:27 AM 32.0 °F 27.5 °F 30.9 °F 96% 30.16 in 3.0 mi SSE 4.6 mph - N/A   Overcast
4:53 AM 32.0 °F 27.5 °F 30.9 °F 96% 30.18 in 3.0 mi South 4.6 mph - N/A   Overcast
5:53 AM 32.0 °F 26.4 °F 30.9 °F 96% 30.17 in 3.0 mi SSE 5.8 mph - N/A   Overcast
6:26 AM 33.1 °F 28.7 °F 30.9 °F 92% 30.13 in 4.0 mi South 4.6 mph - N/A   Overcast
6:53 AM 33.1 °F 28.7 °F 30.9 °F 92% 30.15 in 3.0 mi SSE 4.6 mph - N/A   Overcast
7:36 AM 33.1 °F 27.7 °F 30.9 °F 92% 30.14 in 3.0 mi South 5.8 mph - N/A   Overcast
7:50 AM 33.8 °F 28.6 °F 32.0 °F 93% 30.13 in 2.0 mi SSE 5.8 mph - N/A   Overcast
7:53 AM 33.1 °F 27.7 °F 32.0 °F 96% 30.15 in 1.5 mi SSE 5.8 mph - N/A   Overcast
8:27 AM 33.1 °F 27.7 °F 32.0 °F 96% 30.14 in 0.5 mi SSE 5.8 mph - N/A Fog Fog
8:53 AM 33.1 °F 27.7 °F 32.0 °F 96% 30.17 in 1.0 mi SSE 5.8 mph - N/A   Overcast
9:17 AM 34.0 °F 28.8 °F 33.1 °F 96% 30.13 in 2.0 mi SSE 5.8 mph - N/A   Overcast
9:25 AM 34.0 °F 29.8 °F 33.1 °F 96% 30.13 in 2.0 mi SSE 4.6 mph - N/A   Overcast
9:53 AM 34.0 °F 28.8 °F 33.1 °F 96% 30.14 in 2.5 mi SE 5.8 mph - N/A   Overcast
10:02 AM 34.0 °F 29.8 °F 33.1 °F 96% 30.12 in 3.0 mi SSE 4.6 mph - N/A   Overcast
10:27 AM 35.1 °F 29.3 °F 33.1 °F 92% 30.11 in 2.5 mi SSE 6.9 mph - N/A   Overcast
10:39 AM 35.1 °F 30.1 °F 33.1 °F 92% 30.11 in 3.0 mi SE 5.8 mph - N/A   Overcast
10:53 AM 35.1 °F 31.0 °F 33.1 °F 92% 30.13 in 3.0 mi SSE 4.6 mph - N/A   Overcast
11:53 AM 37.0 °F 31.0 °F 34.0 °F 89% 30.09 in 3.0 mi SSE 8.1 mph - N/A   Overcast
12:10 PM 37.0 °F 31.0 °F 35.1 °F 93% 30.05 in 4.0 mi SSE 8.1 mph - N/A   Overcast
12:44 PM 37.9 °F 32.1 °F 35.1 °F 89% 30.02 in 4.0 mi SSE 8.1 mph - N/A   Overcast
12:53 PM 37.9 °F 32.7 °F 35.1 °F 89% 30.03 in 4.0 mi SE 6.9 mph - N/A   Overcast
1:49 PM 37.4 °F 31.4 °F 35.6 °F 93% 29.95 in 4.0 mi SE 8.1 mph - N/A   Overcast
1:53 PM 39.0 °F 32.8 °F 36.0 °F 89% 29.97 in 4.0 mi SSE 9.2 mph - N/A   Overcast
2:20 PM 39.0 °F 33.4 °F 36.0 °F 89% 29.94 in 4.0 mi SE 8.1 mph - N/A   Overcast
2:53 PM 39.9 °F 33.9 °F 37.0 °F 89% 29.92 in 4.0 mi SE 9.2 mph - N/A   Overcast
3:01 PM 39.9 °F 34.5 °F 37.0 °F 89% 29.90 in 4.0 mi SE 8.1 mph - N/A   Mostly Cloudy
3:12 PM 39.9 °F 32.9 °F 37.0 °F 89% 29.89 in 4.0 mi SE 11.5 mph - N/A   Scattered Clouds
3:25 PM 39.9 °F 34.5 °F 37.9 °F 93% 29.90 in 4.0 mi SSE 8.1 mph - N/A   Mostly Cloudy
3:35 PM 39.9 °F 34.5 °F 37.9 °F 93% 29.90 in 4.0 mi SSE 8.1 mph - N/A   Mostly Cloudy
3:53 PM 39.9 °F 34.5 °F 37.9 °F 93% 29.91 in 4.0 mi SSE 8.1 mph - N/A   Overcast
4:05 PM 41.0 °F 35.8 °F 39.0 °F 93% 29.89 in 4.0 mi SE 8.1 mph - N/A   Overcast
4:41 PM 41.0 °F 35.2 °F 39.9 °F 96% 29.87 in 2.5 mi SSE 9.2 mph - N/A   Overcast
4:53 PM 41.0 °F 35.2 °F 39.0 °F 93% 29.89 in 1.8 mi SSE 9.2 mph - N/A   Overcast
5:53 PM 39.9 °F 35.8 °F 39.0 °F 97% 29.86 in 1.0 mi SE 5.8 mph - 0.03 in Rain Light Rain
6:10 PM 39.9 °F 35.8 °F 39.0 °F 97% 29.84 in 0.8 mi SSE 5.8 mph - 0.01 in Rain Light Rain
6:31 PM 41.0 °F 38.0 °F 39.9 °F 96% 29.84 in 1.5 mi South 4.6 mph - 0.04 in Rain Light Rain
6:48 PM 41.0 °F 38.0 °F 39.2 °F 93% 29.84 in 0.8 mi South 4.6 mph - 0.06 in Rain Light Rain
6:53 PM 41.0 °F 37.1 °F 39.9 °F 96% 29.86 in 0.8 mi SSE 5.8 mph - 0.06 in Rain Light Rain
7:16 PM 41.0 °F 37.1 °F 39.9 °F 96% 29.81 in 1.2 mi SSE 5.8 mph - 0.02 in Rain Light Rain
7:29 PM 41.0 °F 36.4 °F 39.9 °F 96% 29.80 in 0.5 mi SE 6.9 mph - 0.03 in Fog , Rain Light Rain
7:53 PM 39.9 °F 35.1 °F 39.9 °F 100% 29.81 in 0.2 mi SE 6.9 mph - 0.04 in Fog , Rain Light Rain
8:53 PM 41.0 °F 37.1 °F 39.9 °F 96% 29.76 in 0.2 mi SE 5.8 mph - 0.04 in Fog , Rain Light Rain
9:43 PM 42.1 °F 37.1 °F 42.1 °F 100% 29.71 in 0.8 mi SSE 8.1 mph - 0.01 in Rain Light Rain
9:51 PM 42.8 °F 38.0 °F 42.8 °F 100% 29.71 in 0.5 mi SSE 8.1 mph - 0.02 in Fog , Rain Light Rain
9:53 PM 42.1 °F 36.6 °F 42.1 °F 100% 29.72 in 0.5 mi SSE 9.2 mph - 0.02 in Fog , Rain Light Rain
10:53 PM 42.1 °F 39.2 °F 41.0 °F 96% 29.70 in 0.2 mi South 4.6 mph - 0.03 in Fog , Rain Light Rain
11:11 PM 42.1 °F 38.4 °F 41.0 °F 96% 29.67 in 1.0 mi South 5.8 mph - 0.01 in Rain Light Rain
11:25 PM 42.1 °F 38.4 °F 42.1 °F 100% 29.67 in 0.5 mi South 5.8 mph - 0.03 in Fog , Rain Light Rain
11:53 PM 42.1 °F 37.7 °F 42.1 °F 100% 29.66 in 0.5 mi SSE 6.9 mph - 0.06 in Fog , Rain Light Rain